Regional Weather Roundup
Issued by NWS

Home | Current Version | Previous Version | Text Only | Print | Product List | Glossary On
Versions: 1 2 3 4 5 6 7 8 9 10 11 12 13 14 15 16 17 18 19 20 21 22 23 24 25 26 27 28 29 30 31 32 33 34 35 36 37 38 39 40 41 42 43 44 45 46 47 48 49 50
292
ASUS43 KIND 300309
RWRIN

WEATHER ROUNDUP FOR INDIANA
NATIONAL WEATHER SERVICE INDIANAPOLIS IN
1100 PM EDT SUN MAY 29 2016

NOTE: "FAIR" INDICATES FEW OR NO CLOUDS BELOW 12,000 FEET WITH NO
SIGNIFICANT WEATHER AND/OR OBSTRUCTIONS TO VISIBILITY.

* - STATION DOES NOT REPORT WEATHER SUCH AS PRECIPITATION OR FOG.

+ - STATION NOT QUALITY CONTROLLED BY THE NATIONAL WEATHER SERVICE.
    USE DATA WITH CAUTION...ESPECIALLY DEWPOINT AND RELATIVE
    HUMIDITY OBSERVATIONS.

INZ001>003-010>013-019-020-300400-
NORTHWEST INDIANA

CITY           SKY/WX    TMP DP  RH WIND       PRES   REMARKS
GARY /AIRPORT/ CLEAR     68  64  88 W6        30.00R
KNOX *+        CLEAR     72  45  37 W6        30.00R
LA PORTE +     CLEAR     71  57  60 W3        30.01R
MICHIGAN CITY+ CLEAR     64  55  72 CALM      30.01R
MONTICELLO +   PTCLDY    70  51  50 CALM      30.01R
RENSSELAER +   CLEAR     70  55  60 CALM      30.01R
VALPARAISO     CLEAR     68  57  68 W5        30.01R

$$

LMZ046-743>745-300400-
SOUTHERN LAKE MICHIGAN

STATION/POSITION TIME  TEMP    WIND        PRES    WAVE
                       AIR SEA DIR/SP/G            HT
                 (UTC) (F)     (DEG/KT/KT) (MB)    (FT)
BURNS HARBOR     0200   67     250/  9/ 18 1015.9R
MICHIGAN CITY    0200   69     220/ 10/ 11   N/A
5NW MICH CITY    0300   62 59  250/  4/  8   N/A     1

$$

INZ004-005-014>016-021>024-300400-
NORTH CENTRAL INDIANA

CITY           SKY/WX    TMP DP  RH WIND       PRES   REMARKS
GOSHEN         CLEAR     65  55  70 CALM      30.00R
LOGANSPORT +   CLEAR     70  54  56 W3        30.02R
PERU/GRISSOM   CLEAR     71  56  60 W6        30.00R
ROCHESTER +    CLEAR     72  57  60 CALM      30.02R
SOUTH BEND     CLEAR     65  56  72 CALM      30.00R
WARSAW +       CLEAR     66  59  77 CALM      30.01R

$$

INZ006>009-017-018-025>027-300400-
NORTHEAST INDIANA

CITY           SKY/WX    TMP DP  RH WIND       PRES   REMARKS
ANGOLA *+        N/A     70  63  78 CALM      30.00S
AUBURN +       CLEAR     70  55  60 CALM      30.01R
FORT WAYNE     PTCLDY    72  56  57 NW6       30.01R
HUNTINGTON +   CLEAR    N/A N/A N/A CALM      30.00R

$$

INZ028-029-035-036-043>045-051>053-300400-
WEST CENTRAL INDIANA

CITY           SKY/WX    TMP DP  RH WIND       PRES   REMARKS
CRAWFORDSVL +  CLOUDY    68  55  63 CALM      30.03R
GREENCASTLE +  PTCLDY    68  63  83 CALM      30.04R
LAFAYETTE      CLEAR     69  56  62 W6        30.01R
TERRE HAUTE    PTCLDY    73  57  57 W3        30.04R

$$

INZ030>032-037>040-046>048-054>057-064-065-300400-
CENTRAL INDIANA

CITY           SKY/WX    TMP DP  RH WIND       PRES   REMARKS
CP ATTERBURY + CLEAR     64  63  94 CALM      30.03R
FISHERS *+     MOCLDY    70  57  64 CALM      30.02
FRANKFORT +      N/A     69  44  40 W7        30.04R
GREENWOOD *+   CLEAR     70  64  83 W5        30.03R
INDIANAPOLIS   PTCLDY    70  62  76 SW6       30.01R
-EAGLE CREEK   PTCLDY    73  56  54 NW6       30.01R
KOKOMO *+      CLOUDY    70  54  56 W6        30.01R
MARION +       CLOUDY    72  53  51 W6        30.01R
SHELBYVILLE    CLEAR     72  63  73 W6        30.01R
ZIONSVILLE +   CLOUDY    72  55  56 NW3       30.03R

$$

INZ033-034-041-042-049-050-058-059-300400-
EAST CENTRAL INDIANA

CITY           SKY/WX    TMP DP  RH WIND       PRES   REMARKS
MUNCIE         PTCLDY    74  53  48 W5        30.01R

$$

INZ060-061-067>069-081>083-085>088-300400-
SOUTHWEST INDIANA

CITY           SKY/WX    TMP DP  RH WIND       PRES   REMARKS
EVANSVILLE     PTCLDY    71  64  78 CALM      30.05R
HUNTINGBURG *+ CLEAR     68  63  83 CALM      30.04R
WASHINGTON +   CLEAR     70  63  77 W8        30.03R

$$

INZ062-063-066-070>080-084-089>092-300400-
SOUTH CENTRAL AND SOUTHEAST INDIANA

CITY           SKY/WX    TMP DP  RH WIND       PRES   REMARKS
BLOOMINGTON    CLEAR     67  63  87 CALM      30.03R
MADISON *+     CLEAR     70  64  83 CALM      30.05R
NORTH VERNON + CLEAR    N/A N/A N/A CALM      30.03S HAZE
SEYMOUR +      CLEAR     72  63  73 CALM      30.02R

$$





USA.gov is the U.S. government's official web portal to all federal, state and local government web resources and services.